Weather History for KARW - January, 2012

Change the Weather History Date:

Monday, January 30, 2012

  Actual Average (KNBC) Record (KNBC)
Temperature  
Mean Temperature 48 °F -  
Max Temperature 62 °F 62 °F 80 °F (1950)
Min Temperature 35 °F 39 °F 11 °F (1966)
Degree Days  
Heating Degree Days 16    
Moisture  
Dew Point 26 °F    
Average Humidity 48    
Maximum Humidity 81    
Minimum Humidity 15    
Precipitation  
Precipitation 0.00 in - - ()
Sea Level Pressure  
Sea Level Pressure 30.41 in    
Wind  
Wind Speed 5 mph (WNW)    
Max Wind Speed 9 mph    
Max Gust Speed -    
Visibility 10 miles    
Events      
Averages and records for this station are not official NWS values.
T = Trace of Precipitation, MM = Missing Value Source: NWS Daily Summary

Daily Weather History Graph

Daily Weather History Graph

Search for Another Location

Airport or City:

Trip Planner

Search our weather history database for the weather conditions in past years. The results will help you decide how hot, cold, wet, or windy it might be!

Date:

Astronomy

Jan. 30, 2012 Rise Set
Actual Time 7:18 AM EST 5:53 PM EST
Civil Twilight 6:52 AM EST 6:19 PM EST
Nautical Twilight 6:23 AM EST 6:48 PM EST
Astronomical Twilight 5:54 AM EST 7:17 PM EST
Moon 11:09 AM EST (1/30) 12:08 AM EST (1/30)
Length of Visible Light 11h 26m
Length of Day
10h 35m
Waxing Crescent, 46% of the Moon is Illuminated
Jan 30
Waxing Crescent
Jan 30
First Quarter
Feb 7
Full
Feb 14
Last Quarter
Feb 21
New

Hourly Weather History & Observations

Time (EST) Temp. Windchill Dew Point Humidity Pressure Visibility Wind Dir Wind Speed Gust Speed Precip Events Conditions
12:15 AM 42.8 °F 39.3 °F 30.2 °F 61% 30.37 in 10.0 mi West 5.8 mph - N/A   Clear
12:35 AM 41.0 °F 37.1 °F 30.2 °F 65% 30.37 in 10.0 mi West 5.8 mph - N/A   Clear
12:55 AM 39.2 °F 35.0 °F 30.2 °F 70% 30.37 in 10.0 mi West 5.8 mph - N/A   Clear
1:15 AM 39.2 °F 35.0 °F 30.2 °F 70% 30.37 in 10.0 mi West 5.8 mph - N/A   Clear
1:35 AM 37.4 °F 33.8 °F 32.0 °F 81% 30.37 in 10.0 mi West 4.6 mph - N/A   Clear
1:55 AM 37.4 °F 34.9 °F 32.0 °F 81% 30.37 in 10.0 mi West 3.5 mph - N/A   Clear
2:15 AM 37.4 °F 34.9 °F 30.2 °F 75% 30.37 in 10.0 mi West 3.5 mph - N/A   Clear
2:35 AM 37.4 °F 33.8 °F 28.4 °F 70% 30.37 in 10.0 mi WNW 4.6 mph - N/A   Clear
2:55 AM 37.4 °F 32.8 °F 28.4 °F 70% 30.37 in 10.0 mi WNW 5.8 mph - N/A   Clear
3:15 AM 37.4 °F - 30.2 °F 75% 30.37 in 10.0 mi Calm Calm - N/A   Clear
3:35 AM 37.4 °F - 28.4 °F 70% 30.37 in 10.0 mi Calm Calm - N/A   Clear
3:55 AM 37.4 °F 33.8 °F 28.4 °F 70% 30.37 in 10.0 mi WNW 4.6 mph - N/A   Clear
4:15 AM 35.6 °F 31.7 °F 28.4 °F 75% 30.37 in 10.0 mi West 4.6 mph - N/A   Clear
4:35 AM 35.6 °F 30.7 °F 28.4 °F 75% 30.38 in 10.0 mi West 5.8 mph - N/A   Clear
4:55 AM 35.6 °F - 28.4 °F 75% 30.38 in 10.0 mi Calm Calm - N/A   Clear
5:15 AM 35.6 °F - 28.4 °F 75% 30.39 in 10.0 mi Calm Calm - N/A   Clear
5:55 AM 35.6 °F - 28.4 °F 75% 30.39 in 10.0 mi Calm Calm - N/A   Clear
6:15 AM 35.6 °F - 28.4 °F 75% 30.40 in 10.0 mi Calm Calm - N/A   Clear
6:35 AM 35.6 °F - 28.4 °F 75% 30.41 in 10.0 mi Calm Calm - N/A   Clear
6:55 AM 37.4 °F 33.8 °F 30.2 °F 75% 30.41 in 10.0 mi NW 4.6 mph - N/A   Clear
7:15 AM 37.4 °F 32.1 °F 28.4 °F 70% 30.43 in 10.0 mi NW 6.9 mph - N/A   Clear
7:35 AM 39.2 °F 33.0 °F 24.8 °F 56% 30.43 in 10.0 mi NW 9.2 mph - N/A   Clear
7:55 AM 41.0 °F 35.8 °F 24.8 °F 53% 30.44 in 10.0 mi NW 8.1 mph - N/A   Clear
8:15 AM 42.8 °F 39.3 °F 24.8 °F 49% 30.46 in 10.0 mi NW 5.8 mph - N/A   Clear
8:35 AM 44.6 °F 42.2 °F 23.0 °F 43% 30.47 in 10.0 mi NW 4.6 mph - N/A   Clear
8:55 AM 46.4 °F 44.3 °F 24.8 °F 43% 30.48 in 10.0 mi NW 4.6 mph - N/A   Clear
9:15 AM 46.4 °F 43.5 °F 24.8 °F 43% 30.48 in 10.0 mi WNW 5.8 mph - N/A   Clear
9:35 AM 50.0 °F - 23.0 °F 35% 30.49 in 10.0 mi NW 6.9 mph - N/A   Clear
9:55 AM 51.8 °F - 23.0 °F 33% 30.48 in 10.0 mi NW 8.1 mph - N/A   Clear
10:15 AM 53.6 °F - 24.8 °F 33% 30.48 in 10.0 mi NW 6.9 mph - N/A   Clear
10:35 AM 55.4 °F - 21.2 °F 26% 30.47 in 10.0 mi NW 9.2 mph - N/A   Clear
10:55 AM 59.0 °F - 21.2 °F 23% 30.47 in 10.0 mi NNW 8.1 mph - N/A   Clear
11:15 AM 59.0 °F - 21.2 °F 23% 30.47 in 10.0 mi NW 9.2 mph - N/A   Clear
11:35 AM 60.8 °F - 21.2 °F 22% 30.47 in 10.0 mi NNW 9.2 mph - N/A   Clear
11:55 AM 60.8 °F - 17.6 °F 19% 30.46 in 10.0 mi NW 8.1 mph - N/A   Clear
12:15 PM 60.8 °F - 17.6 °F 19% 30.45 in 10.0 mi NW 6.9 mph - N/A   Clear
12:35 PM 60.8 °F - 17.6 °F 19% 30.44 in 10.0 mi North 5.8 mph - N/A   Clear
12:55 PM 62.6 °F - 17.6 °F 18% 30.43 in 10.0 mi NNW 3.5 mph - N/A   Clear
1:15 PM 62.6 °F - 17.6 °F 18% 30.42 in 10.0 mi NW 5.8 mph - N/A   Clear
1:35 PM 62.6 °F - 19.4 °F 19% 30.42 in 10.0 mi NNE 4.6 mph - N/A   Clear
2:15 PM 62.6 °F - 19.4 °F 19% 30.40 in 10.0 mi NNE 6.9 mph - N/A   Clear
2:35 PM 62.6 °F - 19.4 °F 19% 30.40 in 10.0 mi East 4.6 mph - N/A   Clear
3:15 PM 62.6 °F - 14.0 °F 15% 30.39 in 10.0 mi Calm Calm - N/A   Clear
3:35 PM 62.6 °F - 17.6 °F 18% 30.39 in 10.0 mi North 3.5 mph - N/A   Clear
3:55 PM 62.6 °F - 15.8 °F 16% 30.39 in 10.0 mi Calm Calm - N/A   Clear
4:15 PM 62.6 °F - 28.4 °F 27% 30.39 in 10.0 mi SSE 6.9 mph - N/A   Clear
4:35 PM 60.8 °F - 32.0 °F 34% 30.40 in 10.0 mi SSE 8.1 mph - N/A   Clear
4:55 PM 59.0 °F - 32.0 °F 36% 30.39 in 10.0 mi SE 4.6 mph - N/A   Clear
5:15 PM 55.4 °F - 32.0 °F 41% 30.39 in 10.0 mi SSE 5.8 mph - N/A   Clear
5:35 PM 55.4 °F - 32.0 °F 41% 30.39 in 10.0 mi SE 4.6 mph - N/A   Clear
5:55 PM 53.6 °F - 33.8 °F 47% 30.39 in 10.0 mi South 3.5 mph - N/A   Clear
6:15 PM 51.8 °F - 33.8 °F 50% 30.40 in 10.0 mi SSE 3.5 mph - N/A   Clear
6:35 PM 51.8 °F - 35.6 °F 54% 30.41 in 10.0 mi South 3.5 mph - N/A   Clear
6:55 PM 50.0 °F - 35.6 °F 58% 30.41 in 10.0 mi South 3.5 mph - N/A   Clear
7:15 PM 46.4 °F 45.2 °F 35.6 °F 66% 30.42 in 10.0 mi South 3.5 mph - N/A   Clear
7:35 PM 48.2 °F - 35.6 °F 62% 30.42 in 10.0 mi Calm Calm - N/A   Clear
7:55 PM 46.4 °F - 35.6 °F 66% 30.42 in 10.0 mi Calm Calm - N/A   Clear
8:15 PM 44.6 °F 43.1 °F 37.4 °F 76% 30.43 in 10.0 mi South 3.5 mph - N/A   Clear
8:35 PM 44.6 °F - 35.6 °F 71% 30.43 in 10.0 mi Calm Calm - N/A   Clear
8:55 PM 44.6 °F - 35.6 °F 71% 30.43 in 10.0 mi Calm Calm - N/A   Clear
9:15 PM 42.8 °F - 35.6 °F 76% 30.43 in 10.0 mi Calm Calm - N/A   Clear
9:35 PM 42.8 °F - 35.6 °F 76% 30.43 in 10.0 mi Calm Calm - N/A   Clear
9:55 PM 44.6 °F - 35.6 °F 71% 30.43 in 10.0 mi Calm Calm - N/A   Clear
10:15 PM 42.8 °F - 35.6 °F 76% 30.43 in 10.0 mi Calm Calm - N/A   Clear
10:35 PM 42.8 °F - 35.6 °F 76% 30.43 in 10.0 mi Calm Calm - N/A   Clear
10:55 PM 42.8 °F - 35.6 °F 76% 30.43 in 10.0 mi Calm Calm - N/A   Clear
11:15 PM 41.0 °F - 35.6 °F 81% 30.43 in 10.0 mi Calm Calm - N/A   Clear
11:35 PM 41.0 °F - 35.6 °F 81% 30.43 in 10.0 mi Calm Calm - N/A   Clear
11:55 PM 41.0 °F - 35.6 °F 81% 30.43 in 10.0 mi Calm Calm - N/A   Clear